Reflectivity
-20 -20 -20 -20 -20 -20 -20 -20 -20 -20 -20 -20 -20 -20 -20 -20 -20 -20 -20 2 -20 -20 -20 -20 4 -1 -0 -20 -20 -20 -20 -20 -20 -20 -20 -20 -20 -20 -20 -20 -20 -20 -20 -20 -20 -20 -20 -20 -20
-20 -20 -20 -20 -20 -20 -20 -20 -20 -20 -20 -20 -20 -20 -20 -20 -20 -20 -20 -20 -20 -20 -20 -20 -6 7 -14 -19 -8 -1 -11 5 -20 -20 -20 -20 -20 -20 -20 -20 -7 -20 -20 -20 -20 -20 -20 -20 -13
-20 -20 -20 -20 -20 -20 -20 -20 -20 -20 -20 -20 -20 -20 -20 -20 -20 -20 -20 -20 -20 -20 -20 -20 -20 -20 -20 -20 -20 -20 -20 -13 -18 -11 -20 -20 -20 -20 -20 -20 -20 -20 -20 -20 -20 -20 -20 -20 -20
-20 -20 -20 -20 -20 -20 -20 -20 -20 -20 -20 -20 -20 -20 -20 -20 -20 -20 -20 -20 -20 -20 -20 -20 -20 -20 -20 -20 -20 -20 -20 -20 -20 -20 -20 -20 -3 -10 -20 -20 -20 -20 -20 -20 -20 -20 -20 -20 -20
-20 -20 -20 -20 -20 -20 -20 -20 -20 -20 -20 -20 -20 -20 -20 -20 -20 -20 -20 -20 -20 -20 -20 -20 -20 -20 -20 -20 -20 -20 -20 -20 -20 -20 -20 -20 -20 -20 -20 15 -2 -20 -20 -20 -20 -20 -20 -20 -20
-20 -20 -20 -20 -20 -20 -20 -20 -20 -20 -20 -20 -20 -20 -20 -20 -20 -20 -20 -20 -20 -20 -20 -20 -20 -20 -20 -20 -20 -20 -20 -20 -20 -20 -20 -20 -20 -20 -20 -20 -1 3 9 -14 -20 16 10 -20 -20
-20 -20 -20 -20 -20 -20 -20 -6 -20 -20 -20 -20 -20 -20 -20 -20 -20 -20 -20 -20 -20 -20 -20 -20 -20 -20 -20 -20 -20 -20 -20 -20 -20 -20 -20 -20 -20 -20 -20 -20 -20 -19 -20 -6 7 -14 -15 5 14
-20 -20 -20 -20 -20 -20 -20 -2 -18 -20 -20 -20 -20 -20 -20 -20 -20 -20 -20 -20 -20 -20 -20 -20 -20 -20 -20 -20 -20 -20 -20 -20 -20 -20 -20 -20 -20 -20 -20 -20 -20 -20 -20 -20 -20 -20 -20 -20 -19
-20 -20 -20 -20 -20 -20 -20 -1 -20 -20 -20 -20 -20 -20 -20 -20 -20 -20 -20 -20 -20 -20 -20 -20 -20 -20 -20 -20 -20 -20 -20 -20 -20 -20 -20 -20 -20 -20 -20 -20 -20 -20 -20 -20 -20 -20 -20 -20 -20
-20 -20 -20 -20 -20 -20 -20 -18 -20 -15 -20 -20 -20 -20 -20 -20 -20 -20 -20 -20 -20 -20 -20 -20 -20 -20 -20 -20 -20 -20 -20 -20 -20 -20 -20 -20 -20 -20 -20 -20 -20 -20 -20 -20 -20 -20 -20 -20 -20
-20 -20 -20 -20 -20 -20 -20 -20 -20 -20 -20 -20 -20 -20 -20 -20 -20 -20 -20 -20 -20 -20 -20 -20 -20 -20 -20 -20 -20 -20 -20 -20 -20 -20 -20 -20 -20 -20 -20 -20 -20 -20 -20 -20 -20 -20 -20 -20 -20
-20 -20 -20 -20 -20 -20 -20 -20 -20 -20 -20 -20 -20 -20 -20 -20 -20 -20 -20 -20 -20 -20 -20 -20 -20 -20 -20 -20 -20 -20 -20 -20 -20 -20 -20 -20 -20 -20 -20 -20 -20 -20 -20 -20 -20 -20 -20 -20 -20
-20 -20 -20 -20 -20 -20 -20 -20 -20 -20 -20 -20 -20 -20 -20 -20 -20 -20 -20 -20 -20 -20 -20 -20 -20 -20 -20 -20 -20 -20 -20 -20 -20 -20 -20 -20 -20 -20 -20 -20 -20 -20 -20 -20 -20 -20 -20 -20 -20
-20 -20 -20 -20 -20 -20 -20 -20 -20 -20 -20 -20 -20 -20 -20 -20 -20 -20 -20 -20 -20 -20 -20 -20 -20 -20 -20 -20 -20 -20 -20 -20 -20 -20 -20 -20 -20 -20 -20 -20 -20 -20 -20 -20 -20 -20 -20 -20 -20
-20 -20 -20 -20 -20 -20 -20 -20 -20 -20 -20 -20 -20 -20 -20 -20 -20 -20 -20 -20 -20 -20 -20 -20 -20 -20 -20 -20 -20 -20 -20 -20 -20 -20 -20 -20 -20 -20 -20 -20 -20 -20 -20 -20 -20 -20 -20 -20 -20
-20 -20 -20 -20 -20 -20 -20 -20 -20 -20 -20 -20 -20 -20 -20 -20 -20 -20 -20 -20 -20 -20 -20 -20 -20 -20 -20 -20 -20 -20 -20 -20 -20 -20 -20 -20 -20 -20 -20 -20 -20 -20 -20 -20 -20 -20 -20 -20 -20
-20 -20 -20 -20 -20 -20 -20 -20 -20 -20 -20 -20 -20 -20 -20 -20 -20 -20 -20 -20 -20 -20 -20 -20 -20 -20 -20 -20 -20 -20 -20 -20 -20 -20 -20 -20 -20 -20 -20 -20 -20 -20 -20 -20 -20 -20 -20 -20 -20
-20 -20 -20 -20 -20 -20 -20 -20 -20 -20 -20 -20 -20 -20 -20 -20 -20 -20 -20 -20 -20 -20 -20 -20 -20 -20 -20 -20 -20 -20 -20 -20 -20 -20 -20 -20 -20 -20 -20 -20 -20 -20 -20 -20 -20 -20 -20 -20 -20
-20 -20 -20 -20 -20 -20 -20 -20 -20 -20 -20 -20 -20 -20 -20 -20 -20 -20 -20 -20 -20 -20 -20 -20 -20 -20 -20 -20 -20 -20 -20 -20 -20 -20 -20 -20 -20 -20 -20 -20 -20 -20 -20 -20 -20 -20 -20 -20 -20
-20 -20 -20 -20 -20 -20 -20 -20 -20 -20 -20 -20 -20 -20 -20 -20 -20 -20 -20 -20 -20 -20 -20 -20 -20 -20 -20 -20 -20 -20 -20 -20 -20 -20 -20 -20 -20 -20 -20 -20 -20 -20 -20 -20 -20 -20 -20 -20 -20
-20 -20 -20 -20 -20 -20 -20 -20 -20 -20 -20 -20 -20 -20 -20 -20 -20 -20 -20 -20 -20 -20 -20 -20 -20 -20 -20 -20 -20 -20 -20 -20 -20 -20 -20 -20 -20 -20 -20 -20 -20 -20 -20 -20 -20 -20 -20 -20 -20
-20 -20 -20 -20 -20 -20 -20 -20 -20 -20 -20 -20 -20 -20 -20 -20 -20 -20 -20 -20 -20 -20 -20 -20 -20 -20 -20 -20 -20 -20 -20 -20 -20 -20 -20 -20 -20 -20 -20 -20 -20 -20 -20 -20 -20 -20 -20 -20 -20
-20 -20 -20 -20 -20 -20 -20 -20 -20 -20 -20 -20 -20 -20 -20 -20 -20 -20 -20 -20 -20 -20 -20 -20 -20 -20 -20 -20 -20 -20 -20 -20 -20 -20 -20 -20 -20 -20 -20 -20 -20 -20 -20 -20 -20 -20 -20 -20 -20
-20 -20 -20 -20 -20 -20 -20 -20 -20 -20 -20 -20 -20 -20 -20 -20 -20 -20 -20 -20 -20 -20 -20 -20 -20 -20 -20 -20 -20 -20 -20 -20 -20 -20 -20 -20 -20 -20 -20 -20 -20 -20 -20 -20 -20 -20 -20 -20 -20
-20 -20 -20 -20 -20 -20 -20 -20 -20 -20 -20 -20 -20 -20 -20 -20 -20 -20 -20 -20 -20 -20 -20 -20 -20 -20 -20 -20 -20 -20 -20 -20 -20 -20 -20 -20 -20 -20 -20 -20 -20 -20 -20 -20 -20 -20 -20 -20 -20
-20 -20 -20 -20 -20 -20 -20 -20 -20 -20 -20 -20 -20 -20 -20 -20 -20 -20 -20 -20 -20 -20 -20 -20 -20 -20 -20 -20 -20 -20 -20 -20 -20 -20 -20 -20 -20 -20 -20 -20 -20 -20 -20 -20 -20 -20 -20 -20 -20
-20 -20 -20 -20 -20 -20 -20 -20 -20 -20 -20 -20 -20 -20 -20 -20 -20 -20 -20 -20 -20 -20 -20 -20 -20 -20 -20 -20 -20 -20 -20 -20 -20 -20 -20 -20 -20 -20 -20 -20 -20 -20 -20 -20 -20 -20 -20 -20 -20
-20 -20 -20 -20 -20 -20 -20 -20 -20 -20 -20 -20 -20 -20 -20 -20 -20 -20 -20 -20 -20 -20 -20 -20 -20 -20 -20 -20 -20 -20 -20 -20 -20 -20 -20 -20 -20 -20 -20 -20 -20 -20 -20 -20 -20 -20 -20 -20 -20
-20 -20 -20 -20 -20 -20 -20 -20 -20 -20 -20 -20 -20 -20 -20 -20 -20 -20 -20 -20 -20 -20 -20 -20 -20 -20 -20 -20 -20 -20 -20 -20 -20 -20 -20 -20 -20 -20 -20 -20 -20 -20 -20 -20 -20 -20 -20 -20 -20
-20 -20 -20 -20 -20 -20 -20 -20 -20 -20 -20 -20 -20 -20 -20 -20 -20 -20 -20 -20 -20 -20 -20 -20 -20 -20 -20 -20 -20 -20 -20 -20 -20 -20 -20 -20 -20 -20 -20 -20 -20 -20 -20 -20 -20 -20 -20 -20 -20
Wind_Speed
3 4 2 4 5 5 3 6 1 5 4 6 4 8 13 5 3 5 4 9 9 6 7 8 11 12 11 10 9 8 7 7 6 5 2 2 1 1 1 2 2 3 4 5 5 4 4 4 2
1 1 4 3 6 3 6 4 4 3 8 9 7 5 8 5 2 6 5 5 9 8 6 6 11 11 11 12 11 10 8 8 7 6 3 3 1 2 3 4 3 3 4 4 5 5 5 5 6
2 2 4 5 4 6 5 4 6 5 6 3 6 8 6 4 1 4 6 6 10 7 5 6 10 11 11 11 11 10 10 10 9 9 8 5 4 4 4 4 4 4 5 5 6 5 5 6 7
1 4 4 4 5 6 5 7 6 8 5 7 7 10 5 4 2 6 6 6 10 7 6 7 10 11 11 11 10 10 9 9 9 9 9 9 9 7 6 4 3 4 5 6 6 6 6 6 6
3 3 3 2 5 4 2 7 4 6 5 5 1 5 5 4 6 9 7 7 9 6 5 5 10 10 10 10 9 8 8 8 8 8 8 9 10 10 9 8 5 5 5 6 7 8 7 6 5
4 4 3 4 5 1 2 4 7 5 3 5 8 7 3 4 6 5 7 8 8 7 6 6 9 9 8 10 9 8 8 8 8 8 10 11 13 12 10 9 8 7 7 7 8 8 9 9 9
6 5 6 6 7 3 5 3 7 7 5 4 8 7 3 4 7 7 8 8 7 7 6 6 5 7 9 7 11 10 7 9 7 9 10 12 13 14 10 9 8 9 10 10 10 10 11 10 9
5 4 4 5 7 5 5 3 2 8 5 4 3 8 7 6 8 8 8 7 7 6 6 5 5 6 5 5 12 12 11 10 11 10 12 12 12 13 11 11 10 12 11 9 10 11 13 13 10
3 4 3 7 7 6 5 5 3 3 8 4 6 4 5 12 9 8 6 5 5 4 5 4 5 6 6 5 7 10 10 12 12 10 13 9 5 6 7 9 12 14 14 11 11 11 13 11 9
4 4 6 1 3 6 5 6 7 6 4 5 4 8 12 12 9 9 7 5 3 3 3 4 5 5 5 4 5 5 6 4 5 5 6 4 5 6 8 9 13 13 15 14 13 12 12 9 4
4 5 1 1 4 7 8 6 4 11 2 6 11 14 9 8 7 8 6 6 5 3 2 3 4 4 5 4 3 3 3 3 3 6 5 5 5 4 4 4 4 5 8 5 6 6 4 6 4
5 1 1 5 5 5 6 6 6 2 3 10 14 14 8 9 8 8 7 7 6 4 3 3 3 4 4 3 3 3 3 3 3 4 5 4 3 4 4 3 4 4 4 5 5 4 5 6 5
3 2 4 4 7 8 9 6 7 5 4 13 12 9 9 8 8 5 7 6 6 4 3 2 2 3 3 4 3 4 3 3 3 4 5 4 4 4 4 4 4 4 4 4 4 4 5 5 6
4 3 3 7 7 7 8 3 4 4 5 12 11 9 8 9 9 6 6 6 5 4 3 1 2 3 4 3 4 2 2 3 3 3 4 5 4 4 4 4 4 4 4 4 4 4 4 4 4
7 6 6 9 6 4 3 5 3 3 6 10 9 7 7 8 8 10 8 7 7 4 4 2 2 2 3 3 3 2 2 3 4 4 5 6 5 4 4 4 4 4 4 5 4 5 4 4 5
6 6 5 4 4 3 3 4 4 6 10 8 8 7 7 7 9 7 8 7 6 5 5 2 3 3 2 3 2 2 2 3 3 3 3 6 5 5 5 4 4 4 4 4 4 4 4 4 4
6 6 4 1 4 2 3 3 4 5 7 8 8 7 7 7 6 6 7 7 7 7 6 3 2 1 3 3 2 3 2 2 2 3 4 5 5 5 4 4 4 5 4 4 4 3 3 4 6
5 7 5 5 4 2 2 3 4 6 7 9 8 7 8 8 10 8 8 7 7 7 5 4 2 1 2 3 3 2 2 2 3 3 3 4 4 5 5 4 5 4 4 4 4 4 3 3 4
8 7 8 1 3 3 5 4 7 7 5 8 8 8 9 11 7 7 7 7 7 6 6 4 3 1 1 1 1 1 0 2 1 2 3 4 4 5 5 4 4 4 4 4 5 3 4 3 5
5 8 4 4 1 1 4 5 6 8 8 9 11 9 10 6 5 7 8 7 7 7 6 5 5 3 2 1 1 2 2 2 1 1 2 3 4 4 4 4 4 4 3 5 5 5 3 2 5
2 7 6 8 4 2 4 6 5 6 6 6 7 6 6 11 9 8 9 8 7 7 7 7 6 5 3 3 1 1 1 1 1 1 1 1 3 3 3 4 3 3 3 3 3 4 4 2 2
4 3 6 12 6 4 2 5 4 2 6 7 8 8 8 8 6 6 8 8 8 8 6 6 6 5 4 3 2 3 3 3 3 3 2 1 1 2 2 2 3 3 2 4 3 3 2 1 3
6 8 7 4 5 6 2 6 7 3 2 1 6 8 6 3 6 7 9 9 6 6 7 6 6 5 4 4 4 3 3 2 1 1 2 2 1 1 1 1 2 2 2 2 2 3 3 2 2
6 8 9 5 4 4 1 5 6 1 1 2 3 3 6 5 5 4 4 6 5 5 6 6 6 6 6 5 5 5 5 4 3 3 3 3 2 2 3 2 2 2 2 1 1 1 1 1 2
7 7 4 6 5 6 4 2 8 2 1 3 6 5 5 5 5 4 5 5 6 7 7 6 7 7 6 6 6 6 7 6 6 5 4 4 3 3 5 3 3 2 2 2 1 2 2 2 1
4 5 8 8 5 4 3 6 5 1 4 5 4 3 2 3 2 4 6 6 7 7 8 7 7 7 7 7 7 6 7 5 5 6 4 4 4 4 4 6 5 5 5 4 3 2 3 3 3
3 1 4 8 3 5 3 4 6 2 3 3 3 3 4 4 4 6 6 7 8 8 9 9 8 8 7 8 7 7 7 7 6 7 6 5 5 5 6 6 6 6 5 5 4 3 4 4 3
2 4 3 4 4 3 5 4 6 5 6 4 3 4 3 4 5 3 4 5 6 7 7 7 7 9 8 7 7 7 8 8 7 6 7 8 7 6 6 7 6 6 6 6 5 4 3 4 4
2 1 4 4 4 6 4 7 6 7 7 8 6 6 6 4 1 0 2 4 5 5 5 7 7 7 7 7 7 7 7 8 7 8 8 8 6 7 7 7 6 6 6 5 5 6 6 6 6
2 2 4 6 4 1 3 5 2 8 8 7 6 5 3 4 4 2 3 4 6 6 6 6 6 6 7 6 6 8 7 7 7 8 9 7 9 7 8 8 8 7 7 7 7 7 7 7 7
Wind_Direction
304 331 73 44 72 66 243 257 241 109 68 344 70 107 103 42 66 155 98 104 99 71 50 61 74 79 79 79 73 71 68 63 55 68 97 111 107 18 348 329 329 339 347 353 352 355 354 349 235
12 282 43 78 103 121 252 243 141 169 154 165 81 63 54 73 74 102 81 92 105 80 58 57 79 78 75 69 66 64 60 68 41 34 41 55 20 303 298 288 289 300 313 325 336 335 331 331 308
322 201 94 127 150 185 199 176 159 116 150 115 103 42 83 105 37 89 121 131 90 76 61 67 74 74 70 66 61 55 48 41 35 28 17 8 1 343 320 319 320 317 314 313 314 317 322 318 314
86 23 26 116 210 241 204 161 163 137 103 67 103 69 63 326 51 109 134 116 89 79 69 72 70 67 63 57 52 48 43 39 34 28 15 11 6 359 331 322 313 295 299 299 301 299 303 308 319
42 69 100 185 224 259 237 157 153 115 98 65 64 120 69 30 78 100 111 94 96 79 49 53 69 64 58 51 44 38 31 25 21 16 7 4 356 347 336 331 323 308 295 289 292 295 290 278 286
70 104 105 201 185 274 35 164 122 77 99 155 75 93 103 127 106 112 96 87 86 84 56 44 47 51 46 40 38 25 20 17 11 12 6 1 355 341 325 331 336 322 308 301 304 308 311 306 293
125 117 195 176 156 142 182 169 108 121 106 58 128 86 141 154 141 123 98 85 78 70 65 48 38 34 22 16 26 17 7 5 357 11 11 12 8 2 6 338 342 348 338 329 327 322 314 305 300
126 108 155 214 168 188 171 94 85 91 73 116 116 150 180 193 150 110 88 86 79 68 59 42 28 25 21 17 20 24 18 27 34 31 20 19 11 10 10 11 349 338 314 320 320 322 320 310 299
116 86 179 201 158 170 168 127 33 16 93 59 355 135 153 136 127 101 97 83 75 57 49 44 32 22 11 17 18 17 13 25 38 34 29 20 6 356 5 359 6 6 8 344 330 333 326 304 312
112 135 189 151 261 167 121 107 128 94 98 47 46 56 109 128 133 132 139 135 118 93 52 43 35 22 18 12 15 16 20 34 40 32 27 14 18 9 16 12 18 17 18 16 10 359 360 20 13
157 168 204 311 272 155 132 110 97 126 94 195 161 146 136 134 139 138 148 158 158 149 78 45 37 25 25 18 10 14 28 39 26 24 24 19 16 7 9 3 4 357 9 9 8 5 9 8 17
106 347 118 341 306 121 118 112 78 51 139 156 152 147 135 150 154 155 154 162 159 143 122 79 43 28 21 13 18 17 31 33 26 15 24 30 17 13 11 10 358 2 357 8 11 9 359 10 3
96 201 63 355 57 59 79 55 136 16 86 118 129 141 147 154 157 160 155 157 153 143 135 91 67 34 10 24 12 25 31 38 15 20 14 27 26 20 10 13 12 2 354 8 4 6 8 8 3
125 63 57 32 29 44 97 69 74 19 118 118 140 158 160 161 165 143 160 167 171 155 150 145 68 37 15 11 27 26 27 35 13 24 3 15 26 34 28 19 14 7 0 354 6 5 3 0 358
135 77 22 18 16 65 336 35 79 135 122 134 149 160 162 170 160 172 180 170 166 173 154 177 143 62 19 353 29 71 15 52 43 49 24 35 34 37 35 26 19 5 358 2 7 2 2 6 355
94 60 108 318 0 356 64 200 173 164 136 155 159 169 167 181 186 185 176 158 166 154 158 147 77 80 4 335 43 120 23 79 76 55 32 33 26 30 37 35 21 12 13 12 6 6 357 356 353
18 134 101 54 1 107 69 160 190 169 151 176 186 177 175 187 200 194 166 167 170 160 153 148 80 60 355 347 49 110 58 64 88 66 42 29 32 37 54 39 22 24 23 15 3 356 11 3 351
161 106 91 145 220 60 118 114 163 189 177 197 201 203 203 195 204 184 179 180 161 151 155 145 117 68 3 31 102 67 44 15 67 66 55 39 35 40 45 36 31 31 31 13 6 10 343 6 333
123 119 114 56 250 101 189 146 202 201 207 212 215 213 218 216 215 178 184 174 152 165 162 161 166 191 73 71 127 66 218 303 89 70 76 53 37 41 46 42 36 33 46 25 12 343 9 337 347
92 117 91 64 147 60 180 246 224 199 216 206 207 217 220 229 202 183 192 182 180 181 181 176 191 175 172 164 202 170 182 242 150 86 55 57 50 33 57 47 41 40 44 30 22 18 342 352 360
134 150 166 144 148 20 119 315 219 229 219 210 219 216 215 218 209 194 195 191 186 193 191 193 192 191 185 193 140 133 49 24 56 326 318 351 58 46 52 50 53 43 47 41 23 14 30 353 328
164 168 129 130 104 176 95 250 262 238 230 215 217 217 227 219 213 186 178 183 200 208 197 197 189 191 200 187 191 202 208 210 223 197 213 196 126 69 62 62 56 54 48 41 6 25 4 33 16
191 132 129 122 100 97 320 76 263 313 166 175 212 224 218 216 191 184 188 198 193 192 199 198 194 204 197 196 203 207 227 238 233 193 204 229 243 209 168 107 79 63 55 41 37 24 21 17 54
127 85 46 50 78 42 262 123 286 216 232 130 33 99 139 120 111 156 210 183 191 194 194 198 204 218 207 205 215 215 222 224 211 222 226 238 240 244 242 196 165 169 169 176 200 184 117 96 104
80 72 26 15 17 206 308 76 238 309 63 160 148 144 149 139 136 153 150 169 187 198 204 209 211 228 219 214 221 222 227 223 223 224 219 217 226 226 233 218 213 215 216 224 220 229 218 196 170
77 132 151 167 172 214 343 227 253 180 74 84 112 138 155 171 197 205 205 207 213 213 213 215 219 233 222 217 226 225 227 219 223 225 224 237 230 232 221 220 214 216 213 212 207 208 213 200 199
178 357 164 109 36 72 224 277 328 147 115 120 138 171 210 229 228 234 235 227 228 227 224 214 218 229 224 220 219 224 222 220 225 230 224 226 230 233 227 219 221 222 223 222 217 221 227 213 217
98 145 67 357 126 201 294 250 229 193 189 174 174 192 216 219 225 257 280 272 261 249 248 237 225 228 227 221 218 222 218 219 224 224 230 225 231 227 228 222 222 225 224 221 215 231 247 232 241
26 31 61 117 114 149 146 259 215 195 171 179 198 209 215 215 189 26 360 333 325 306 268 250 234 234 238 225 225 224 226 223 224 228 234 232 233 228 231 227 227 231 234 232 230 235 237 230 235
226 237 139 115 222 91 139 268 295 168 174 166 190 174 126 124 129 69 2 353 4 351 344 280 259 244 244 243 238 236 236 229 232 237 235 226 230 222 223 219 221 223 221 217 220 230 227 225 237